Regional Weather Roundup
Issued by NWS Little Rock, AR

Home | Current Version | Previous Version | Text Only | Print | Product List | Glossary Off
Versions: 1 2 3 4 5 6 7 8 9 10 11 12 13 14 15 16 17 18 19 20 21 22 23 24 25 26 27 28 29 30 31 32 33 34 35 36 37 38 39 40 41 42 43 44 45 46 47 48 49 50

000
ASUS44 KLZK 292105
RWRLZK

WEATHER ROUNDUP FOR ARKANSAS
NATIONAL WEATHER SERVICE LITTLE ROCK AR
400 PM CDT FRI AUG 29 2014

NOTE: "FAIR" INDICATES FEW OR NO CLOUDS BELOW 12,000 FEET WITH NO
SIGNIFICANT WEATHER AND/OR OBSTRUCTIONS TO VISIBILITY.

ARZ001-003-010-029-292200-
NORTHWEST ARKANSAS

CITY           SKY/WX    TMP DP  RH WIND       PRES   REMARKS
FAYETTEVILLE   LGT RAIN  74  71  91 S8        29.93F
FORT SMITH     CLOUDY    80  69  69 SW7       29.91S
HARRISON       LGT RAIN  72  68  87 S8        29.93F
BENTONVILLE    CLOUDY    82  64  54 SW7       29.93S
ROGERS         CLOUDY    83  64  52 S9        29.92F
SILOAM SPGS      N/A     82  64  54 SW6       29.92F
HIGHFILL       CLOUDY    83  65  54 S8        29.91F HX  85
SPRINGDALE     PTSUNNY   77  68  73 S9G15     29.94F
$$

ARZ004-005-016-292200-
NORTH CENTRAL ARKANSAS

CITY           SKY/WX    TMP DP  RH WIND       PRES   REMARKS
BATESVILLE     PTSUNNY   90  68  48 S7        29.88F HX  93
FLIPPIN        CLOUDY    72  64  78 SW6       29.92F
MTN HOME       LGT RAIN  71  70  96 CALM      29.91S
$$

ARZ040-041-292200-
WEST CENTRAL ARKANSAS

CITY           SKY/WX    TMP DP  RH WIND       PRES   REMARKS
MENA           PTSUNNY   81  73  78 CALM      29.93F HX  85
MOUNT IDA      PTSUNNY   86  70  58 CALM      29.89F HX  90
$$

ARZ009-017-025-026-028-292200-
NORTHEAST ARKANSAS

CITY           SKY/WX    TMP DP  RH WIND       PRES   REMARKS
CORNING        LGT RAIN  90  72  55 S13       29.90F HX  96
JONESBORO      SUNNY     91  67  44 S15       29.90F HX  94
NEWPORT        MOSUNNY   93  70  47 S18       29.90F HX  98
WALNUT RIDGE   SUNNY     91  68  46 S14G22    29.88F HX  95
BLYTHEVILLE    PTSUNNY   85  69  58 SW5       29.92F HX  89
$$

ARZ022-023-033-042-044-292200-
CENTRAL ARKANSAS

CITY           SKY/WX    TMP DP  RH WIND       PRES   REMARKS
LITTLE ROCK    PTSUNNY   90  70  51 S10       29.89F HX  95
N LITTLE ROCK  PTSUNNY   90  71  54 SW9G18    29.89F HX  96
JACKSONVILLE   MOSUNNY   92  70  48 S13       29.89F HX  97
SEARCY         SUNNY     89  72  57 W7        29.89F HX  96
HOT SPRINGS    PTSUNNY   90  69  50 S10       29.89F HX  94
RUSSELLVILLE   PTSUNNY   80  70  71 NW14G23   29.92R
CLINTON        PTSUNNY   79  75  89 CALM      29.89F
$$

ARZ036-292200-
EAST ARKANSAS

CITY           SKY/WX    TMP DP  RH WIND       PRES   REMARKS
WEST MEMPHIS   SUNNY     90  71  53 S10       29.91F HX  96
$$

ARZ050-053-066-070-073-292200-
SOUTHWEST ARKANSAS

CITY           SKY/WX    TMP DP  RH WIND       PRES   REMARKS
ARKADELPHIA    FAIR      91  73  55 S8        29.88F HX  99
CAMDEN         MOSUNNY   91  72  52 SE8       29.89F HX  98
TEXARKANA      PTSUNNY   91  66  43 S8        29.87F HX  93
EL DORADO      MOSUNNY   90  71  53 SE12      29.90F HX  96
DE QUEEN       PTSUNNY   87  73  62 SW9       29.87F HX  94
$$

ARZ056-057-069-292200-
SOUTHEAST ARKANSAS

CITY           SKY/WX    TMP DP  RH WIND       PRES   REMARKS
PINE BLUFF     MOSUNNY   89  71  55 S15       29.89F HX  95
STUTTGART      MOSUNNY   88  73  62 SE5       29.91F HX  96
MONTICELLO     PTSUNNY   87  72  60 SE8       29.91F HX  93

$$




USA.gov is the U.S. government's official web portal to all federal, state and local government web resources and services.